UAL31 EDDM-KEWR

Flight info

Callsign UAL31
Flight time 1h 54m
Altitude 38000
Route GIVMI6Q/08L GIVMI Y101 INBED DCT REKDI DCT LOHRE DCT BUB L608 DENUT L610 KOPUL Q60 OKSAW DCT BIBPE DCT FELCA DCT OFSOX DCT SLANY DCT OLGON DCT NEBIN/M083F390 DCT 5330N02000W 5230N03000W 5130N04000W 5030N05000W DCT BUDAR/N0479F400 DCT ALLEX DCT HANAA FLOSI4
Aircraft B772/H-SDE2E3FGHIJ5LORVWXY/LB1D1

Departure

Time 2026-04-30 19:35
Airport Munich Airport (EDDM)

Arrival

Time 2026-04-30 21:30
Airport Newark Liberty International Airport (KEWR)
Time Latitude Longitude Altitude Speed Heading
2026-04-30 19:03 48.35135 11.79375 1490 ft 0 kts 263°
2026-04-30 19:06 48.35016 11.79381 1474 ft 0 kts 263°
2026-04-30 19:20 48.35017 11.79394 1490 ft 4 kts 261°
2026-04-30 19:20 48.35032 11.79471 1474 ft 4 kts 258°
2026-04-30 19:21 48.35035 11.79505 1479 ft 4 kts 277°
2026-04-30 19:21 48.35011 11.79535 1480 ft 4 kts
2026-04-30 19:22 48.34987 11.79534 1474 ft 0 kts 354°
2026-04-30 19:24 48.35037 11.79527 1477 ft 10 kts 358°
2026-04-30 19:24 48.35095 11.79594 1477 ft 11 kts 71°
2026-04-30 19:24 48.35242 11.79627 1488 ft 12 kts 353°
2026-04-30 19:25 48.35556 11.79573 1487 ft 15 kts 353°
2026-04-30 19:26 48.35767 11.79517 1478 ft 16 kts 334°
2026-04-30 19:26 48.35963 11.79339 1485 ft 17 kts 349°
2026-04-30 19:26 48.36072 11.79304 1474 ft 13 kts 320°
2026-04-30 19:27 48.36067 11.79000 1480 ft 20 kts 263°
2026-04-30 19:27 48.36035 11.78581 1478 ft 20 kts 263°
2026-04-30 19:28 48.36020 11.78372 1478 ft 20 kts 264°
2026-04-30 19:28 48.35990 11.77952 1476 ft 20 kts 263°
2026-04-30 19:29 48.35957 11.77534 1481 ft 20 kts 263°
2026-04-30 19:29 48.35940 11.77323 1478 ft 20 kts 263°
2026-04-30 19:30 48.35931 11.76704 1482 ft 20 kts 309°
2026-04-30 19:30 48.36136 11.76660 1487 ft 0 kts 23°
2026-04-30 19:33 48.36142 11.76664 1485 ft 6 kts 25°
2026-04-30 19:33 48.36202 11.76732 1476 ft 12 kts 41°
2026-04-30 19:33 48.36267 11.76808 1474 ft 12 kts 40°
2026-04-30 19:33 48.36283 11.76860 1478 ft 0 kts 82°
2026-04-30 19:34 48.36346 11.77667 1477 ft 101 kts 83°
2026-04-30 19:35 48.36452 11.79033 1478 ft 159 kts 83°
2026-04-30 19:35 48.36597 11.80825 1962 ft 175 kts 83°
2026-04-30 19:35 48.36728 11.82664 2821 ft 180 kts 85°
2026-04-30 19:35 48.36776 11.83517 3179 ft 179 kts 86°
2026-04-30 19:36 48.36939 11.85405 3518 ft 194 kts 73°
2026-04-30 19:36 48.37858 11.86994 3925 ft 214 kts 32°
2026-04-30 19:36 48.41075 11.86828 4713 ft 251 kts 346°
2026-04-30 19:37 48.42659 11.85578 5074 ft 273 kts 323°
2026-04-30 19:37 48.43950 11.83411 5624 ft 281 kts 309°
2026-04-30 19:37 48.45129 11.81013 6315 ft 285 kts 308°
2026-04-30 19:37 48.46312 11.78659 7069 ft 284 kts 310°
2026-04-30 19:38 48.47572 11.76352 7745 ft 286 kts 312°
2026-04-30 19:38 48.48877 11.74060 8411 ft 289 kts 313°
2026-04-30 19:38 48.50194 11.71770 9085 ft 292 kts 314°
2026-04-30 19:38 48.51534 11.69431 9785 ft 294 kts 313°
2026-04-30 19:39 48.52868 11.67091 10430 ft 297 kts 314°
2026-04-30 19:39 48.54251 11.64660 10775 ft 313 kts 314°
2026-04-30 19:39 48.55722 11.62069 10945 ft 335 kts 313°
2026-04-30 19:39 48.57283 11.59304 11104 ft 356 kts 313°
2026-04-30 19:40 48.58901 11.56431 11227 ft 368 kts 313°
2026-04-30 19:40 48.60589 11.53432 11380 ft 376 kts 313°
2026-04-30 19:40 48.62297 11.50395 11651 ft 380 kts 313°
2026-04-30 19:40 48.64004 11.47361 12013 ft 382 kts 313°
2026-04-30 19:41 48.65736 11.44283 12387 ft 383 kts 313°
2026-04-30 19:41 48.67444 11.41242 12731 ft 384 kts 313°
2026-04-30 19:41 48.69179 11.38147 13052 ft 386 kts 314°
2026-04-30 19:41 48.71080 11.35275 13341 ft 385 kts 329°
2026-04-30 19:42 48.73345 11.33278 13945 ft 377 kts 335°
2026-04-30 19:42 48.75654 11.31312 14214 ft 382 kts 332°
2026-04-30 19:42 48.77853 11.29021 14464 ft 391 kts 327°
2026-04-30 19:42 48.80044 11.26560 15219 ft 391 kts 328°
2026-04-30 19:43 48.82262 11.24163 15981 ft 391 kts 329°
2026-04-30 19:43 48.84555 11.21924 16656 ft 390 kts 334°
2026-04-30 19:43 48.86922 11.20016 16943 ft 387 kts 340°
2026-04-30 19:44 48.92022 11.17005 17642 ft 392 kts 339°
2026-04-30 19:44 48.94352 11.14849 17808 ft 408 kts 322°
2026-04-30 19:44 48.96273 11.11642 18331 ft 409 kts 314°
2026-04-30 19:44 48.98085 11.08263 18506 ft 411 kts 314°
2026-04-30 19:45 49.00001 11.04992 18528 ft 412 kts 319°
2026-04-30 19:45 49.02033 11.01972 18649 ft 412 kts 321°
2026-04-30 19:45 49.04160 10.99025 18824 ft 415 kts 322°
2026-04-30 19:45 49.06308 10.96106 19393 ft 416 kts 322°
2026-04-30 19:46 49.11791 10.88526 20974 ft 419 kts 322°
2026-04-30 19:46 49.20474 10.76095 23032 ft 433 kts 321°
2026-04-30 19:46 49.29431 10.63136 24799 ft 448 kts 321°
2026-04-30 19:46 49.38469 10.50007 26457 ft 458 kts 321°
2026-04-30 19:47 49.47822 10.36355 27994 ft 469 kts 321°
2026-04-30 19:47 49.54051 10.27219 28912 ft 475 kts 321°
2026-04-30 19:47 49.57246 10.22521 29317 ft 479 kts 321°
2026-04-30 19:47 49.59669 10.18952 29581 ft 482 kts 321°
2026-04-30 19:48 49.64477 10.11852 30172 ft 486 kts 321°
2026-04-30 19:48 49.74302 9.97277 31255 ft 489 kts 321°
2026-04-30 19:48 49.83755 9.83171 32625 ft 481 kts 320°
2026-04-30 19:48 49.93257 9.68918 33896 ft 477 kts 320°
2026-04-30 19:49 50.01661 9.56237 34936 ft 472 kts 320°
2026-04-30 19:49 50.06141 9.48774 35304 ft 473 kts 311°
2026-04-30 19:49 50.07887 9.44405 35299 ft 483 kts 296°
2026-04-30 19:50 50.08866 9.39369 35367 ft 489 kts 285°
2026-04-30 19:50 50.09517 9.34176 35371 ft 485 kts 284°
2026-04-30 19:50 50.11053 9.24066 35393 ft 481 kts 290°
2026-04-30 19:51 50.13117 9.14037 35499 ft 488 kts 291°
2026-04-30 19:51 50.15200 9.03949 35916 ft 488 kts 290°
2026-04-30 19:52 50.16184 8.98940 36166 ft 487 kts 290°
2026-04-30 19:52 50.16828 8.95579 36274 ft 488 kts 290°
2026-04-30 19:52 50.19141 8.83201 36312 ft 489 kts 289°
2026-04-30 19:53 50.23622 8.58890 36351 ft 486 kts 289°
2026-04-30 19:53 50.31007 8.18379 36359 ft 485 kts 288°
2026-04-30 19:54 50.38274 7.77585 36356 ft 484 kts 287°
2026-04-30 19:54 50.45361 7.36887 36340 ft 484 kts 287°
2026-04-30 19:55 50.52295 6.96120 36339 ft 485 kts 286°
2026-04-30 19:55 50.59105 6.55134 36325 ft 485 kts 285°
2026-04-30 19:56 50.65790 6.13897 36296 ft 487 kts 285°
2026-04-30 19:56 50.72390 5.72173 36292 ft 487 kts 284°
2026-04-30 19:57 50.78779 5.30722 36290 ft 488 kts 284°
2026-04-30 19:57 50.85035 4.89061 36276 ft 488 kts 283°
2026-04-30 19:58 50.91867 4.48261 36211 ft 479 kts 298°
2026-04-30 19:58 51.00326 4.28501 36223 ft 478 kts 300°
2026-04-30 19:59 51.11729 3.97354 36283 ft 496 kts 301°
2026-04-30 19:59 51.24281 3.61239 36157 ft 474 kts 285°
2026-04-30 20:00 51.24963 3.56129 36217 ft 474 kts 277°
2026-04-30 20:00 51.26243 3.43883 36252 ft 473 kts 282°
2026-04-30 20:00 51.28769 3.26610 36290 ft 484 kts 281°
2026-04-30 20:01 51.34199 2.83799 36235 ft 494 kts 280°
2026-04-30 20:01 51.39398 2.41376 36244 ft 480 kts 279°
2026-04-30 20:02 51.47063 1.77385 36290 ft 497 kts 278°
2026-04-30 20:03 51.54283 1.12778 36175 ft 482 kts 276°
2026-04-30 20:03 51.56533 0.76899 36312 ft 490 kts 273°
2026-04-30 20:04 51.56998 0.69268 36210 ft 493 kts 273°
2026-04-30 20:04 51.58271 0.48444 36280 ft 492 kts 273°
2026-04-30 20:05 51.60506 0.09814 36276 ft 491 kts 272°
2026-04-30 20:05 51.61162 -0.01965 36185 ft 491 kts 272°
2026-04-30 20:06 51.62141 -0.19411 36273 ft 488 kts 273°
2026-04-30 20:06 51.64760 -0.62708 36202 ft 485 kts 272°
2026-04-30 20:07 51.67182 -1.06013 36190 ft 483 kts 272°
2026-04-30 20:08 51.70493 -1.70399 36194 ft 483 kts 272°
2026-04-30 20:08 51.73616 -2.13573 36181 ft 482 kts 274°
2026-04-30 20:09 51.76510 -2.56507 36219 ft 481 kts 273°
2026-04-30 20:09 51.80565 -3.20946 36230 ft 479 kts 272°
2026-04-30 20:10 51.86447 -3.84625 36134 ft 480 kts 279°
2026-04-30 20:11 51.94424 -4.48191 36113 ft 480 kts 278°
2026-04-30 20:11 51.99537 -4.90730 36113 ft 481 kts 277°
2026-04-30 20:12 52.09873 -5.53807 36067 ft 485 kts 285°
2026-04-30 20:13 52.18202 -5.95607 36071 ft 486 kts 285°
2026-04-30 20:13 52.26682 -6.37574 36091 ft 487 kts 284°
2026-04-30 20:14 52.34992 -6.79769 36093 ft 489 kts 284°
2026-04-30 20:14 52.43189 -7.22310 36097 ft 492 kts 283°
2026-04-30 20:15 52.51307 -7.65404 36081 ft 494 kts 283°
2026-04-30 20:15 52.59264 -8.08636 36070 ft 496 kts 282°
2026-04-30 20:16 52.67123 -8.52366 36057 ft 499 kts 282°
2026-04-30 20:16 52.82093 -9.38684 36068 ft 504 kts 281°
2026-04-30 20:17 52.96922 -10.28697 36048 ft 508 kts 280°
2026-04-30 20:17 53.11177 -11.20093 36075 ft 511 kts 280°
2026-04-30 20:18 53.24740 -12.12097 36054 ft 512 kts 280°
2026-04-30 20:18 53.37653 -13.05140 36072 ft 512 kts 281°
2026-04-30 20:19 53.47320 -13.78874 36596 ft 512 kts 281°
2026-04-30 20:19 53.47870 -13.83189 36792 ft 511 kts 281°
2026-04-30 20:19 53.48853 -13.90908 37241 ft 506 kts 281°
2026-04-30 20:19 53.49570 -13.96691 37568 ft 503 kts 279°
2026-04-30 20:20 53.50132 -14.02484 37858 ft 499 kts 276°
2026-04-30 20:20 53.50410 -14.14048 37971 ft 497 kts 267°
2026-04-30 20:20 53.50245 -14.22634 38073 ft 499 kts 266°
2026-04-30 20:21 53.50019 -14.42885 38076 ft 504 kts 268°
2026-04-30 20:21 53.50289 -15.35473 38074 ft 501 kts 272°
2026-04-30 20:22 53.51927 -16.27900 38132 ft 491 kts 271°
2026-04-30 20:22 53.52568 -17.19724 38171 ft 488 kts 272°
2026-04-30 20:23 53.52454 -18.10908 38192 ft 485 kts 271°
2026-04-30 20:23 53.51660 -19.01082 38245 ft 483 kts 271°
2026-04-30 20:24 53.50184 -19.91112 38262 ft 481 kts 271°
2026-04-30 20:24 53.45306 -20.77974 38270 ft 481 kts 267°
2026-04-30 20:25 53.36141 -22.11917 38315 ft 483 kts 266°
2026-04-30 20:26 53.25415 -23.45449 38353 ft 484 kts 266°
2026-04-30 20:26 53.13227 -24.78232 38360 ft 482 kts 265°
2026-04-30 20:27 52.94700 -26.53849 38405 ft 483 kts 263°
2026-04-30 20:28 52.73538 -28.28365 38420 ft 483 kts 261°
2026-04-30 20:30 52.47710 -30.36920 38431 ft 477 kts 269°
2026-04-30 20:31 52.29488 -32.97880 38465 ft 481 kts 264°
2026-04-30 20:32 52.09784 -35.13677 38471 ft 483 kts 261°
2026-04-30 20:33 51.95951 -36.43358 38474 ft 485 kts 259°
2026-04-30 20:34 51.80651 -37.72617 38476 ft 488 kts 258°
2026-04-30 20:35 51.63970 -39.00769 38474 ft 490 kts 256°
2026-04-30 20:35 51.48243 -40.22831 38455 ft 494 kts 265°
2026-04-30 20:36 51.43270 -41.10481 38469 ft 494 kts 263°
2026-04-30 20:37 51.33999 -42.41680 38468 ft 495 kts 262°
2026-04-30 20:37 51.28787 -42.93433 38480 ft 483 kts 237°
2026-04-30 20:37 51.25351 -43.00515 38474 ft 477 kts 219°
2026-04-30 20:38 51.22471 -43.04947 38447 ft 473 kts 230°
2026-04-30 20:38 51.19416 -43.20539 38538 ft 487 kts 264°
2026-04-30 20:38 51.18145 -43.39164 38523 ft 491 kts 261°
2026-04-30 20:39 51.14726 -43.74595 38452 ft 502 kts 260°
2026-04-30 20:39 51.10758 -44.18761 38442 ft 499 kts 261°
2026-04-30 20:40 50.98113 -45.47355 38461 ft 487 kts 259°
2026-04-30 20:40 50.88983 -46.31684 38465 ft 486 kts 259°
2026-04-30 20:41 50.74161 -47.57448 38461 ft 483 kts 258°
2026-04-30 20:41 50.63660 -48.39879 38453 ft 479 kts 257°
2026-04-30 20:42 50.52631 -49.21571 38444 ft 475 kts 256°
2026-04-30 20:42 50.41375 -50.00063 38418 ft 464 kts 251°
2026-04-30 20:43 50.39897 -50.06044 38444 ft 465 kts 243°
2026-04-30 20:43 50.35191 -50.22646 38464 ft 472 kts 249°
2026-04-30 20:44 50.19653 -50.87656 38331 ft 461 kts 247°
2026-04-30 20:44 50.10438 -51.24537 38454 ft 478 kts 247°
2026-04-30 20:45 49.99033 -51.69118 38320 ft 454 kts 246°
2026-04-30 20:45 49.89894 -52.04099 38459 ft 460 kts 246°
2026-04-30 20:45 49.81643 -52.33683 38474 ft 468 kts 245°
2026-04-30 20:46 49.52068 -53.37723 38340 ft 473 kts 245°
2026-04-30 20:47 49.19303 -54.48025 38305 ft 474 kts 245°
2026-04-30 20:48 48.85663 -55.56307 38267 ft 469 kts 243°
2026-04-30 20:48 48.62730 -56.27529 38270 ft 467 kts 242°
2026-04-30 20:49 48.58469 -56.40511 38859 ft 466 kts 242°
2026-04-30 20:49 48.57022 -56.44905 39119 ft 463 kts 242°
2026-04-30 20:49 48.55587 -56.49260 39354 ft 462 kts 242°
2026-04-30 20:50 48.52741 -56.57878 39734 ft 461 kts 242°
2026-04-30 20:50 48.51301 -56.62230 39878 ft 461 kts 242°
2026-04-30 20:50 48.49864 -56.66566 40028 ft 461 kts 242°
2026-04-30 20:50 48.48425 -56.70901 40142 ft 462 kts 242°
2026-04-30 20:51 48.42557 -56.88524 40192 ft 467 kts 242°
2026-04-30 20:51 48.07155 -57.92255 40212 ft 458 kts 240°
2026-04-30 20:52 47.83528 -58.59220 40257 ft 453 kts 240°
2026-04-30 20:53 47.47670 -59.57717 40197 ft 451 kts 239°
2026-04-30 20:53 47.23312 -60.22617 40229 ft 457 kts 239°
2026-04-30 20:54 46.85068 -61.21451 40077 ft 461 kts 239°
2026-04-30 20:55 46.47003 -62.16382 40103 ft 448 kts 238°
2026-04-30 20:55 46.21516 -62.78146 40058 ft 448 kts 238°
2026-04-30 20:56 45.82309 -63.70572 40110 ft 460 kts 238°
2026-04-30 20:56 45.55318 -64.32467 39955 ft 452 kts 237°
2026-04-30 20:57 45.41853 -64.62840 39937 ft 443 kts 237°
2026-04-30 20:57 45.34715 -64.80711 39931 ft 441 kts 253°
2026-04-30 20:57 45.33742 -64.87839 39981 ft 445 kts 259°
2026-04-30 20:58 45.26749 -65.19520 40010 ft 452 kts 238°
2026-04-30 20:58 45.16261 -65.41441 39974 ft 451 kts 236°
2026-04-30 20:59 44.91487 -65.95136 40009 ft 456 kts 236°
2026-04-30 21:00 44.72839 -66.34865 39866 ft 446 kts 236°
2026-04-30 21:00 44.69403 -66.42117 39892 ft 443 kts 236°
2026-04-30 21:01 44.45145 -66.92867 39857 ft 441 kts 235°
2026-04-30 21:01 44.39609 -67.14676 39847 ft 445 kts 259°
2026-04-30 21:02 44.34532 -67.46312 39858 ft 442 kts 254°
2026-04-30 21:02 44.23725 -68.14076 39911 ft 447 kts 255°
2026-04-30 21:03 44.12522 -68.81429 39798 ft 447 kts 254°
2026-04-30 21:03 44.00903 -69.48671 39831 ft 448 kts 254°
2026-04-30 21:04 43.88907 -70.15545 39822 ft 448 kts 253°
2026-04-30 21:04 43.70135 -71.15617 39798 ft 447 kts 253°
2026-04-30 21:05 43.57148 -71.81935 39816 ft 448 kts 253°
2026-04-30 21:05 43.43696 -72.48361 39776 ft 449 kts 252°
2026-04-30 21:06 43.29917 -73.14241 39818 ft 448 kts 252°
2026-04-30 21:06 43.15505 -73.62881 39837 ft 443 kts 212°
2026-04-30 21:07 43.11365 -73.65157 39822 ft 449 kts 199°
2026-04-30 21:07 42.94307 -73.71843 39806 ft 449 kts 202°
2026-04-30 21:07 42.61460 -73.86151 39826 ft 452 kts 202°
2026-04-30 21:08 42.46842 -73.92816 39825 ft 453 kts 201°
2026-04-30 21:08 42.37842 -73.96812 39830 ft 454 kts 201°
2026-04-30 21:09 42.14070 -74.07337 38829 ft 447 kts 201°
2026-04-30 21:09 42.02843 -74.12280 36818 ft 443 kts 201°
2026-04-30 21:09 41.99899 -74.13571 36018 ft 444 kts 201°
2026-04-30 21:10 41.94699 -74.15848 34651 ft 445 kts 201°
2026-04-30 21:10 41.88788 -74.18434 32876 ft 446 kts 201°
2026-04-30 21:10 41.82906 -74.20995 31436 ft 438 kts 202°
2026-04-30 21:10 41.78135 -74.23064 30171 ft 415 kts 203°
2026-04-30 21:11 41.75381 -74.24265 28942 ft 417 kts 204°
2026-04-30 21:11 41.72621 -74.25479 28331 ft 419 kts 203°
2026-04-30 21:11 41.69886 -74.26673 27933 ft 412 kts 203°
2026-04-30 21:11 41.67157 -74.27858 27427 ft 405 kts 203°
2026-04-30 21:12 41.64564 -74.28976 26679 ft 383 kts 203°
2026-04-30 21:12 41.62050 -74.30062 25243 ft 377 kts 203°
2026-04-30 21:12 41.59534 -74.31164 24289 ft 383 kts 203°
2026-04-30 21:12 41.57071 -74.32230 23184 ft 364 kts 203°
2026-04-30 21:13 41.54688 -74.33258 21642 ft 355 kts 203°
2026-04-30 21:13 41.52372 -74.34259 20204 ft 349 kts 203°
2026-04-30 21:13 41.50067 -74.35257 18810 ft 344 kts 202°
2026-04-30 21:13 41.47801 -74.36238 17372 ft 340 kts 202°
2026-04-30 21:14 41.45577 -74.37199 15934 ft 336 kts 202°
2026-04-30 21:14 41.43340 -74.38165 14540 ft 333 kts 201°
2026-04-30 21:14 41.41156 -74.39106 13159 ft 331 kts 201°
2026-04-30 21:14 41.38964 -74.40050 11750 ft 327 kts 201°
2026-04-30 21:15 41.36838 -74.40963 10501 ft 321 kts 201°
2026-04-30 21:15 41.34707 -74.41878 9208 ft 316 kts 201°
2026-04-30 21:15 41.32641 -74.42765 7910 ft 316 kts 201°
2026-04-30 21:15 41.30563 -74.43657 6695 ft 309 kts 201°
2026-04-30 21:16 41.28486 -74.44550 5725 ft 323 kts 200°
2026-04-30 21:16 41.26376 -74.45455 5269 ft 305 kts 200°
2026-04-30 21:16 41.24426 -74.46283 4799 ft 289 kts 200°
2026-04-30 21:16 41.22509 -74.47102 4507 ft 284 kts 200°
2026-04-30 21:17 41.20688 -74.47879 4083 ft 275 kts 200°
2026-04-30 21:17 41.18862 -74.48661 3839 ft 272 kts 200°
2026-04-30 21:17 41.17085 -74.49426 3598 ft 270 kts 200°
2026-04-30 21:17 41.15289 -74.50198 3303 ft 269 kts 200°
2026-04-30 21:18 41.13501 -74.50957 3108 ft 266 kts 200°
2026-04-30 21:18 41.11754 -74.51532 3012 ft 260 kts 184°
2026-04-30 21:18 41.09939 -74.51077 3039 ft 274 kts 154°
2026-04-30 21:18 41.08345 -74.49652 3030 ft 275 kts 140°
2026-04-30 21:19 41.06902 -74.48008 3017 ft 272 kts 137°
2026-04-30 21:19 41.05518 -74.46381 3008 ft 266 kts 137°
2026-04-30 21:19 41.04149 -74.44762 3011 ft 265 kts 137°
2026-04-30 21:19 41.02779 -74.43142 3003 ft 262 kts 137°
2026-04-30 21:20 41.01419 -74.41531 3008 ft 260 kts 137°
2026-04-30 21:20 41.00973 -74.41003 3007 ft 259 kts 137°
2026-04-30 21:21 40.99825 -74.39530 3004 ft 259 kts 131°
2026-04-30 21:21 40.98645 -74.37738 3012 ft 253 kts 128°
2026-04-30 21:21 40.96413 -74.34105 3003 ft 251 kts 128°
2026-04-30 21:22 40.95394 -74.32337 2984 ft 232 kts 121°
2026-04-30 21:22 40.93421 -74.27825 3003 ft 199 kts 117°
2026-04-30 21:23 40.92752 -74.26246 3024 ft 200 kts 117°
2026-04-30 21:23 40.92071 -74.24634 3008 ft 199 kts 117°
2026-04-30 21:23 40.90745 -74.21503 2999 ft 194 kts 117°
2026-04-30 21:24 40.90083 -74.19940 3016 ft 199 kts 117°
2026-04-30 21:24 40.89399 -74.18317 3020 ft 202 kts 117°
2026-04-30 21:24 40.88724 -74.16711 3017 ft 200 kts 117°
2026-04-30 21:24 40.88041 -74.15092 2991 ft 199 kts 117°
2026-04-30 21:25 40.86728 -74.11981 2978 ft 194 kts 122°
2026-04-30 21:25 40.85754 -74.10773 2992 ft 197 kts 157°
2026-04-30 21:25 40.84450 -74.10396 3008 ft 189 kts 176°
2026-04-30 21:26 40.81831 -74.10107 2525 ft 183 kts 178°
2026-04-30 21:26 40.80560 -74.09973 2324 ft 186 kts 179°
2026-04-30 21:27 40.78275 -74.10773 1886 ft 157 kts 205°
2026-04-30 21:27 40.77315 -74.11336 1659 ft 143 kts 208°
2026-04-30 21:27 40.76445 -74.11884 1494 ft 136 kts 208°
2026-04-30 21:28 40.74721 -74.13020 1171 ft 141 kts 208°
2026-04-30 21:28 40.73833 -74.13569 956 ft 143 kts 207°
2026-04-30 21:28 40.72091 -74.14669 483 ft 135 kts 210°
2026-04-30 21:29 40.71256 -74.15215 337 ft 137 kts 210°
2026-04-30 21:29 40.68772 -74.16783 28 ft 95 kts 205°
2026-04-30 21:30 40.68239 -74.17222 30 ft 12 kts 234°
2026-04-30 21:31 40.68165 -74.17369 29 ft 15 kts 236°
2026-04-30 21:31 40.68233 -74.17660 26 ft 17 kts 317°
2026-04-30 21:32 40.68441 -74.17647 27 ft 17 kts 31°
2026-04-30 21:32 40.68546 -74.17580 27 ft 17 kts 25°
2026-04-30 21:32 40.68651 -74.17515 27 ft 17 kts 25°
2026-04-30 21:32 40.68756 -74.17450 27 ft 17 kts 26°
2026-04-30 21:33 40.68859 -74.17384 27 ft 17 kts 26°
2026-04-30 21:33 40.69068 -74.17251 26 ft 17 kts 26°
2026-04-30 21:33 40.69172 -74.17185 26 ft 17 kts 26°
2026-04-30 21:34 40.69259 -74.17130 26 ft 8 kts 26°
2026-04-30 21:34 40.69337 -74.17088 26 ft 6 kts 17°
2026-04-30 21:34 40.69377 -74.17075 26 ft 6 kts 10°
2026-04-30 21:35 40.69417 -74.17070 26 ft 6 kts
2026-04-30 21:35 40.69459 -74.17070 26 ft 6 kts 359°
2026-04-30 21:35 40.69500 -74.17073 26 ft 6 kts 355°
2026-04-30 21:35 40.69540 -74.17082 26 ft 6 kts 347°
2026-04-30 21:36 40.69579 -74.17097 27 ft 6 kts 341°
2026-04-30 21:36 40.69618 -74.17115 27 ft 6 kts 340°
2026-04-30 21:37 40.69769 -74.17238 27 ft 10 kts 317°
2026-04-30 21:37 40.69816 -74.17304 27 ft 10 kts 312°
2026-04-30 21:37 40.69877 -74.17413 27 ft 19 kts 297°
2026-04-30 21:37 40.69900 -74.17586 27 ft 19 kts 256°
2026-04-30 21:38 40.69836 -74.17678 27 ft 12 kts 218°
2026-04-30 21:38 40.69756 -74.17705 27 ft 12 kts 166°
2026-04-30 21:38 40.69685 -74.17681 27 ft 5 kts 165°
2026-04-30 21:38 40.69675 -74.17678 27 ft 1 kts 165°
2026-04-30 21:40 40.69677 -74.17679 27 ft 0 kts 165°